DAL1045 KLAX-KSEA

Flight info

Callsign DAL1045
Flight time N/A
Altitude 34000
Route LADYJ4 CSTRO DCT SHIMR DCT LKV HAWKZ8
Aircraft B738/M-SDE2E3FGHIRWXY/LB1

Departure

Time 2026-05-01 13:37
Airport Los Angeles International Airport (KLAX)

Arrival

Time N/A
Airport Seattle–Tacoma International Airport (KSEA)
Time Latitude Longitude Altitude Speed Heading
2026-05-01 12:45 33.94016 -118.40136 95 ft 0 kts 308°
2026-05-01 13:17 33.93998 -118.40097 97 ft 4 kts 276°
2026-05-01 13:17 33.93999 -118.40078 95 ft 4 kts 245°
2026-05-01 13:18 33.94012 -118.40064 96 ft 5 kts 172°
2026-05-01 13:23 33.94011 -118.40064 96 ft 0 kts 172°
2026-05-01 13:25 33.94034 -118.40067 94 ft 2 kts 174°
2026-05-01 13:25 33.94044 -118.40068 97 ft 0 kts 174°
2026-05-01 13:25 33.94042 -118.40068 97 ft 0 kts 174°
2026-05-01 13:26 33.94041 -118.40068 97 ft 0 kts 174°
2026-05-01 13:26 33.93995 -118.40062 98 ft 11 kts 170°
2026-05-01 13:27 33.93967 -118.40041 98 ft 6 kts 126°
2026-05-01 13:27 33.93964 -118.39977 98 ft 3 kts 83°
2026-05-01 13:27 33.93977 -118.39822 97 ft 14 kts 84°
2026-05-01 13:28 33.94005 -118.39573 95 ft 13 kts 83°
2026-05-01 13:28 33.94017 -118.39451 97 ft 16 kts 84°
2026-05-01 13:29 33.94029 -118.39334 96 ft 3 kts 83°
2026-05-01 13:29 33.94038 -118.39240 97 ft 8 kts 82°
2026-05-01 13:30 33.94069 -118.38867 97 ft 7 kts 83°
2026-05-01 13:31 33.94081 -118.38732 98 ft 10 kts 85°
2026-05-01 13:31 33.94115 -118.38409 99 ft 15 kts 82°
2026-05-01 13:32 33.94109 -118.38368 98 ft 0 kts 122°
2026-05-01 13:34 33.94069 -118.38339 101 ft 7 kts 169°
2026-05-01 13:34 33.94049 -118.38335 102 ft 1 kts 172°
2026-05-01 13:35 33.93950 -118.38368 107 ft 10 kts 258°
2026-05-01 13:35 33.93947 -118.38394 109 ft 1 kts 262°
2026-05-01 13:36 33.93928 -118.38565 109 ft 51 kts 263°
2026-05-01 13:37 33.93851 -118.39331 105 ft 130 kts 262°
2026-05-01 13:37 33.93713 -118.40655 269 ft 177 kts 263°
2026-05-01 13:37 33.93636 -118.42105 1214 ft 175 kts 279°
2026-05-01 13:37 33.94056 -118.43472 2133 ft 178 kts 294°
2026-05-01 13:38 33.95617 -118.46422 2908 ft 234 kts 306°
2026-05-01 13:38 33.96620 -118.48097 3318 ft 257 kts 306°
2026-05-01 13:38 33.97680 -118.49880 4120 ft 265 kts 306°
2026-05-01 13:39 33.98746 -118.51688 5177 ft 264 kts 305°
2026-05-01 13:39 33.99799 -118.53490 6086 ft 269 kts 305°
2026-05-01 13:39 34.00882 -118.55351 6935 ft 273 kts 304°
2026-05-01 13:39 34.01989 -118.57261 7613 ft 286 kts 304°
2026-05-01 13:40 34.03169 -118.59301 7975 ft 308 kts 304°
2026-05-01 13:40 34.04457 -118.61533 8013 ft 332 kts 304°
2026-05-01 13:40 34.05734 -118.63745 8407 ft 309 kts 304°
2026-05-01 13:40 34.06929 -118.65802 8719 ft 291 kts 307°
2026-05-01 13:41 34.08428 -118.67406 9081 ft 289 kts 331°
2026-05-01 13:41 34.10275 -118.68318 9492 ft 293 kts 340°
2026-05-01 13:41 34.12225 -118.69111 10084 ft 297 kts 341°
2026-05-01 13:41 34.14234 -118.69905 10415 ft 313 kts 341°
2026-05-01 13:42 34.16377 -118.70749 10574 ft 333 kts 341°
2026-05-01 13:42 34.18641 -118.71646 10752 ft 351 kts 341°
2026-05-01 13:42 34.21000 -118.72586 11190 ft 359 kts 341°
2026-05-01 13:42 34.23371 -118.73538 11882 ft 358 kts 341°
2026-05-01 13:43 34.25732 -118.74489 12648 ft 357 kts 341°
2026-05-01 13:43 34.28084 -118.75440 13353 ft 357 kts 341°
2026-05-01 13:43 34.30449 -118.76398 14030 ft 358 kts 341°
2026-05-01 13:43 34.32817 -118.77359 14595 ft 362 kts 341°
2026-05-01 13:44 34.35214 -118.78333 15164 ft 365 kts 341°
2026-05-01 13:44 34.37635 -118.79318 15780 ft 367 kts 341°
2026-05-01 13:44 34.40064 -118.80307 16379 ft 370 kts 341°
2026-05-01 13:44 34.42511 -118.81303 16970 ft 372 kts 341°
2026-05-01 13:45 34.44979 -118.82309 17506 ft 376 kts 341°
2026-05-01 13:45 34.47469 -118.83324 18097 ft 378 kts 341°
2026-05-01 13:45 34.49970 -118.84345 18589 ft 381 kts 341°
2026-05-01 13:45 34.52459 -118.85362 19047 ft 384 kts 340°
2026-05-01 13:46 34.55028 -118.86411 19528 ft 386 kts 340°
2026-05-01 13:46 34.57549 -118.87442 20011 ft 388 kts 340°
2026-05-01 13:46 34.60112 -118.88491 20522 ft 390 kts 340°
2026-05-01 13:46 34.62694 -118.89548 20986 ft 393 kts 340°
2026-05-01 13:47 34.65294 -118.90613 21429 ft 396 kts 340°
2026-05-01 13:47 34.67916 -118.91688 21888 ft 399 kts 339°
2026-05-01 13:47 34.70555 -118.92771 22325 ft 401 kts 339°
2026-05-01 13:47 34.73209 -118.93860 22760 ft 404 kts 339°
2026-05-01 13:48 34.75877 -118.94956 23193 ft 406 kts 339°
2026-05-01 13:48 34.78568 -118.96062 23558 ft 410 kts 339°
2026-05-01 13:48 34.81275 -118.97176 23938 ft 411 kts 339°
2026-05-01 13:48 34.83990 -118.98293 24315 ft 413 kts 339°
2026-05-01 13:49 34.86713 -118.99414 24718 ft 413 kts 339°
2026-05-01 13:49 34.89438 -119.00537 25103 ft 415 kts 339°
2026-05-01 13:49 34.92178 -119.01667 25470 ft 416 kts 338°
2026-05-01 13:49 34.94926 -119.02802 25791 ft 418 kts 338°
2026-05-01 13:50 34.97686 -119.03942 26148 ft 419 kts 338°
2026-05-01 13:50 35.00449 -119.05084 26497 ft 420 kts 338°
2026-05-01 13:50 35.03220 -119.06230 26840 ft 422 kts 338°
2026-05-01 13:50 35.06003 -119.07382 27150 ft 423 kts 338°
2026-05-01 13:51 35.08798 -119.08540 27454 ft 425 kts 338°
2026-05-01 13:51 35.11603 -119.09703 27768 ft 426 kts 338°
2026-05-01 13:51 35.14413 -119.10868 28072 ft 427 kts 338°
2026-05-01 13:51 35.17236 -119.12040 28370 ft 429 kts 338°
2026-05-01 13:52 35.20067 -119.13216 28667 ft 430 kts 338°
2026-05-01 13:52 35.22864 -119.14379 28961 ft 431 kts 338°
2026-05-01 13:52 35.25738 -119.15574 29350 ft 430 kts 337°
2026-05-01 13:52 35.28563 -119.16749 29835 ft 427 kts 337°
2026-05-01 13:53 35.31361 -119.17914 30278 ft 424 kts 337°
2026-05-01 13:53 35.36936 -119.20241 30820 ft 424 kts 337°
2026-05-01 13:53 35.39735 -119.21411 31088 ft 425 kts 337°
2026-05-01 13:54 35.42525 -119.22576 31414 ft 423 kts 337°
2026-05-01 13:54 35.45323 -119.23713 31735 ft 423 kts 339°
2026-05-01 13:54 35.48128 -119.24645 31999 ft 425 kts 341°
2026-05-01 13:54 35.51007 -119.25508 32261 ft 426 kts 342°
2026-05-01 13:55 35.53929 -119.26349 32555 ft 425 kts 342°
2026-05-01 13:55 35.56766 -119.27161 32856 ft 424 kts 342°
2026-05-01 13:55 35.59641 -119.27992 33126 ft 424 kts 341°
2026-05-01 13:55 35.62516 -119.28833 33368 ft 425 kts 341°
2026-05-01 13:56 35.65389 -119.29683 33618 ft 425 kts 341°
2026-05-01 13:56 35.68254 -119.30536 33902 ft 424 kts 341°
2026-05-01 13:56 35.74009 -119.32261 34020 ft 426 kts 341°
2026-05-01 13:57 35.78819 -119.33705 33998 ft 423 kts 341°
2026-05-01 13:57 35.85436 -119.35694 34007 ft 419 kts 341°
2026-05-01 13:58 35.91094 -119.37399 34009 ft 417 kts 341°
2026-05-01 13:58 35.96729 -119.39100 34009 ft 416 kts 341°
2026-05-01 13:59 36.02353 -119.40801 34002 ft 416 kts 341°
2026-05-01 13:59 36.07990 -119.42508 34000 ft 417 kts 341°
2026-05-01 14:00 36.13636 -119.44220 34003 ft 419 kts 341°
2026-05-01 14:00 36.19303 -119.45941 34002 ft 420 kts 341°
2026-05-01 14:01 36.24985 -119.47668 33997 ft 421 kts 341°
2026-05-01 14:01 36.30677 -119.49400 34002 ft 422 kts 341°
2026-05-01 14:02 36.36380 -119.51139 33996 ft 422 kts 341°
2026-05-01 14:02 36.42085 -119.52881 33995 ft 422 kts 341°
2026-05-01 14:03 36.47795 -119.54626 34008 ft 422 kts 341°
2026-05-01 14:03 36.53494 -119.56371 34001 ft 421 kts 341°
2026-05-01 14:04 36.58220 -119.57821 33996 ft 421 kts 341°
2026-05-01 14:04 36.63897 -119.59564 34002 ft 419 kts 341°
2026-05-01 14:05 36.70472 -119.61587 34009 ft 418 kts 341°
2026-05-01 14:05 36.76113 -119.63325 34009 ft 417 kts 341°
2026-05-01 14:06 36.80841 -119.64784 34009 ft 417 kts 341°
2026-05-01 14:06 36.86462 -119.66521 34009 ft 416 kts 341°
2026-05-01 14:07 36.92047 -119.68250 34005 ft 416 kts 341°
2026-05-01 14:08 37.00476 -119.70864 34004 ft 416 kts 341°
2026-05-01 14:08 37.06100 -119.72611 33992 ft 416 kts 341°
2026-05-01 14:09 37.11717 -119.74359 34000 ft 416 kts 341°
2026-05-01 14:09 37.17348 -119.76114 34002 ft 417 kts 341°
2026-05-01 14:10 37.22985 -119.77873 34009 ft 418 kts 341°
2026-05-01 14:10 37.25757 -119.78739 33999 ft 418 kts 341°
2026-05-01 14:11 37.26658 -119.79021 34006 ft 418 kts 341°
2026-05-01 14:12 37.27034 -119.79139 34006 ft 418 kts 341°
2026-05-01 14:12 37.28515 -119.79601 34007 ft 418 kts 341°
2026-05-01 14:13 37.34170 -119.81372 34015 ft 418 kts 341°
2026-05-01 14:13 37.39820 -119.83143 34021 ft 419 kts 341°
2026-05-01 14:14 37.45473 -119.84918 34021 ft 419 kts 341°
2026-05-01 14:14 37.51127 -119.86696 34024 ft 418 kts 341°
2026-05-01 14:15 37.56769 -119.88473 34021 ft 418 kts 341°
2026-05-01 14:15 37.62410 -119.90253 34037 ft 417 kts 341°
2026-05-01 14:16 37.68047 -119.92034 34032 ft 418 kts 341°
2026-05-01 14:16 37.73694 -119.93821 34036 ft 418 kts 341°
2026-05-01 14:17 37.79331 -119.95608 34042 ft 417 kts 341°
2026-05-01 14:17 37.84955 -119.97394 34049 ft 417 kts 341°
2026-05-01 14:18 37.90582 -119.99183 34058 ft 416 kts 341°
2026-05-01 14:18 37.95256 -120.00671 34056 ft 416 kts 341°
2026-05-01 14:19 38.01825 -120.02767 34050 ft 417 kts 341°
2026-05-01 14:19 38.07445 -120.04562 34065 ft 416 kts 341°
2026-05-01 14:20 38.15869 -120.07260 34061 ft 417 kts 341°
2026-05-01 14:21 38.21458 -120.09052 34056 ft 417 kts 341°
2026-05-01 14:21 38.27246 -120.10111 34083 ft 423 kts 351°
2026-05-01 14:22 38.36071 -120.10844 34074 ft 424 kts 351°
2026-05-01 14:22 38.41953 -120.11349 34079 ft 424 kts 351°
2026-05-01 14:23 38.47837 -120.11876 34095 ft 424 kts 351°
2026-05-01 14:23 38.53716 -120.12411 34105 ft 423 kts 351°
2026-05-01 14:24 38.59598 -120.12950 34124 ft 423 kts 351°
2026-05-01 14:24 38.65473 -120.13488 34144 ft 423 kts 351°
2026-05-01 14:25 38.71350 -120.14027 34175 ft 423 kts 351°
2026-05-01 14:25 38.77223 -120.14566 34191 ft 423 kts 351°
2026-05-01 14:26 38.86036 -120.15378 34204 ft 423 kts 351°
2026-05-01 14:27 38.91905 -120.15919 34208 ft 423 kts 351°
2026-05-01 14:27 38.97777 -120.16461 34198 ft 423 kts 351°
2026-05-01 14:28 39.06597 -120.17278 34149 ft 423 kts 351°
2026-05-01 14:28 39.12467 -120.17823 34183 ft 423 kts 351°
2026-05-01 14:29 39.18342 -120.18369 34216 ft 423 kts 351°
2026-05-01 14:30 39.30108 -120.19465 34240 ft 424 kts 351°
2026-05-01 14:31 39.38874 -120.20285 34095 ft 427 kts 351°
2026-05-01 14:31 39.44768 -120.20836 34203 ft 423 kts 351°
2026-05-01 14:32 39.50650 -120.21387 34171 ft 423 kts 351°
2026-05-01 14:32 39.56525 -120.21939 34138 ft 423 kts 351°
2026-05-01 14:33 39.62404 -120.22493 34111 ft 423 kts 351°
2026-05-01 14:33 39.68281 -120.23047 34121 ft 423 kts 351°
2026-05-01 14:34 39.74156 -120.23602 34108 ft 424 kts 351°
2026-05-01 14:34 39.80031 -120.24157 34099 ft 423 kts 351°
2026-05-01 14:35 39.85915 -120.24715 34088 ft 423 kts 351°
2026-05-01 14:35 39.91788 -120.25272 34081 ft 423 kts 351°
2026-05-01 14:36 39.97660 -120.25831 34089 ft 423 kts 351°
2026-05-01 14:36 40.03530 -120.26390 34090 ft 423 kts 351°
2026-05-01 14:37 40.09405 -120.26951 34095 ft 423 kts 351°
2026-05-01 14:37 40.15248 -120.27509 34107 ft 424 kts 351°
2026-05-01 14:38 40.21133 -120.28072 34122 ft 424 kts 351°
2026-05-01 14:38 40.27062 -120.28641 34133 ft 424 kts 351°
2026-05-01 14:39 40.32943 -120.29206 34145 ft 424 kts 351°
2026-05-01 14:39 40.38823 -120.29772 34152 ft 424 kts 351°
2026-05-01 14:40 40.44659 -120.30334 34143 ft 424 kts 351°
2026-05-01 14:40 40.50538 -120.30902 34145 ft 423 kts 351°
2026-05-01 14:41 40.56411 -120.31470 34128 ft 423 kts 352°
2026-05-01 14:41 40.62289 -120.32040 34110 ft 423 kts 352°
2026-05-01 14:42 40.68168 -120.32611 34105 ft 423 kts 352°
2026-05-01 14:42 40.74043 -120.33182 34101 ft 423 kts 352°
2026-05-01 14:43 40.79911 -120.33754 34094 ft 423 kts 352°
2026-05-01 14:43 40.85785 -120.34327 34098 ft 423 kts 352°
2026-05-01 14:44 40.91669 -120.34903 34095 ft 423 kts 352°
2026-05-01 14:44 40.99812 -120.35701 34103 ft 423 kts 352°
2026-05-01 14:45 41.08601 -120.36564 34104 ft 424 kts 352°
2026-05-01 14:46 41.14500 -120.37145 34103 ft 424 kts 352°
2026-05-01 14:46 41.23313 -120.38015 34124 ft 425 kts 352°
2026-05-01 14:47 41.29227 -120.38600 34143 ft 426 kts 352°
2026-05-01 14:48 41.38106 -120.39480 34159 ft 426 kts 352°
2026-05-01 14:48 41.46957 -120.40360 34166 ft 426 kts 352°
2026-05-01 14:49 41.58792 -120.41540 34162 ft 426 kts 352°
2026-05-01 14:50 41.70579 -120.42720 34147 ft 426 kts 352°
2026-05-01 14:51 41.79448 -120.43610 34126 ft 425 kts 352°